World > North America > United States > Virginia

Hourly Fort Hill, VA Regional Weather

Feedback E-mail the Weather

Quick WX

Fort Hill, VA Weather Maps

°F °C°F °C
Fort Hill Weather Map
UTC Time: 7/7/2022, 06:38
Your Time:

Fort Hill, VA Regional Weather

Expires:202207070700;;881751
ASUS41 KAKQ 070615
RWRAKQ

REGIONAL WEATHER ROUNDUP
NATIONAL WEATHER SERVICE WAKEFIELD VA
200 AM EDT THU JUL 07 2022

Note: "fair" indicates few or no clouds below 12,000 feet with no
significant weather and/or obstructions to visibility. * = Denotes
station may not report precipitation (e.g., rain,snow,etc.),
thunder or fog.


VAZ020-022-025-037-045-070700-
WEST CENTRAL AND SOUTHWEST VIRGINIA
  
CITY           SKY/WX    TMP DP  RH WIND       PRES   REMARKS
STAUNTON*      MOCLDY    69  69  99 CALM      29.97S                  
WAYNESBORO*    FAIR      70  69  99 MISG      29.97S                  
HOT SPRINGS VA MOCLDY    67  67 100 W13       30.11R                  
LYNCHBURG      MOCLDY    73  71  93 SW3       29.94S                  
DANVILLE       CLOUDY    74  71  91 SW3       29.95S                  
BROOKNEAL*     NOT AVBL                                               
SOUTH BOSTON*  MOCLDY    71  69  95 CALM      29.94F                  
MARTINSVILLE   CLOUDY    71  71  99 CALM      29.99F                  
ROANOKE        MOCLDY    74  70  87 NE6       29.99R                  
BLACKSBURG     MOCLDY    69  69 100 CALM      30.07R                  
DUBLIN*        MOCLDY    69  68  96 SW5       30.06R                  
MARION*        CLOUDY    67  66  98 W8        30.10F FOG              
HILLSVILLE*    CLOUDY    67  66  96 SW6       30.07S                  
RICHLANDS*     FOG       66  66 100 CALM      30.09S VSB<1/4          
WISE*          MOCLDY    66  64  94 SW6       30.10S                  
ABINGDON*      NOT AVBL                                               
$$


SKY/WX - Weather  TMP - Temperature  DP - Dew Point  RH - Humidity
WIND - Wind Direction/Speed PRES - Barometric Pressure VSB - Visibility
WCI - Wind Chill Index E13G22 Wind - East Wind 13 mph/Gusts of 22 mph

Trending Headlines

Fort Hill Radar Loop



Fort Hill Quick Facts


National Two Day Weather Forecast


E-mail the Fort Hill Weather Forecast

Voice your opinion or tell us about page issues...